Regional Weather Roundup
Issued by NWS Green Bay, WI

Home | Current Version | Previous Version | Graphics & Text | Print | Product List | Glossary Off
Versions: 1 2 3 4 5 6 7 8 9 10 11 12 13 14 15 16 17 18 19 20 21 22 23 24 25 26 27 28 29 30 31 32 33 34 35 36 37 38 39 40 41 42 43 44 45 46 47 48 49 50

000
ASUS43 KGRB 241211
RWRGRB

NORTH-CENTRAL AND NORTHEAST WISCONSIN REGIONAL WEATHER ROUNDUP
NATIONAL WEATHER SERVICE GREEN BAY WI
700 AM CDT TUE MAY 24 2016

WIZ005-009-010>012-018-019-241300-
NORTH CENTRAL WISCONSIN

CITY           SKY/WX    TMP DP  RH WIND       PRES   REMARKS
IRONWOOD       CLOUDY    61  61 100 CALM      29.85R
MANITOWISH WTR LGT RAIN  61  61 100 S3        29.89S
ARBOR VITAE    CLOUDY    62  60  94 CALM      29.89R
EAGLE RIVER    HVY RAIN  60  60  99 SW3       29.90S
LAND O LAKES   LGT RAIN  61  60  97 CALM      29.90F
RHINELANDER    CLOUDY    62  60  93 S3        29.90F
PHILLIPS       PTSUNNY   61  61  99 S5        29.87R
ANTIGO         CLOUDY    62  55  80 CALM      29.92R
TOMAHAWK       LGT RAIN  60  59  96 CALM      29.91R
MERRILL        LGT RAIN N/A N/A N/A S3        29.91R
$$

WIZ013-073-241300-
NORTHEAST WISCONSIN

CITY           SKY/WX    TMP DP  RH WIND       PRES   REMARKS
IRON MOUNTAIN  CLOUDY    62  52  69 NW5       29.89R
MARINETTE      CLOUDY    63  48  59 CALM      29.91R
OCONTO         MOSUNNY   60  51  69 CALM      29.90R
$$

WIZ017-030-035>037-045-241300-
CENTRAL WISCONSIN

CITY           SKY/WX    TMP DP  RH WIND       PRES   REMARKS
MEDFORD        CLOUDY    60  60 100 S5        29.90R
WAUSAU         LGT RAIN  62  53  72 S6        29.90R
MOSINEE        LGT RAIN  57  54  88 E6        29.91S
MARSHFIELD     CLOUDY    61  55  81 S6        29.89R
WISC RAPIDS    CLOUDY    60  54  80 S5        29.91S
STEVENS POINT  CLOUDY    57  53  86 CALM      29.91S
WAUPACA        CLOUDY    58  53  81 CALM      29.91R
SHAWANO        CLOUDY    61  52  73 CALM      29.91R
CLINTONVILLE   CLOUDY    55  50  82 CALM      29.91R
WAUTOMA        CLOUDY    56  51  84 CALM      29.92R
$$

WIZ038-039-048-051-241300-
FOX VALLEY

CITY           SKY/WX    TMP DP  RH WIND       PRES   REMARKS
NWS GREEN BAY  CLOUDY    61  49  64 W3        29.91R
APPLETON       PTSUNNY   61  46  59 S5        29.90R
OSHKOSH        MOSUNNY   60  48  64 S8        29.91R
FOND DU LAC    MOSUNNY   59  48  67 S6        29.93R
$$

WIZ022-050-052-241300-
EAST CENTRAL WISCONSIN

CITY           SKY/WX    TMP DP  RH WIND       PRES   REMARKS
EPHRAIM        FAIR      65  45  48 W7        29.90R
STURGEON BAY   NOT AVBL
MANITOWOC      CLOUDY    59  49  69 CALM      29.93R
SHEBOYGAN      CLOUDY    59  49  69 SW6       29.94R
$$

LMZ563-521-522-541>543-241300-
LAKESHORE

STATION/POSITION TIME  TEMP    WIND        PRES    VSBY  WAVE
                       AIR SEA DIR/SP/G                  HT/PER
                 (UTC) (F)     (DEG/KT/KT) (MB)    (MI)  (FT/S)
SHEBOYGAN LKSHOR 1200   58     180/  8/  8 1014.1R
KEWAUNEE LKSHORE 1100   53     150/  2/  3 1012.0R
ALGOMA MARINA    1101             CALM       N/A
NORTHPORT PIER   1100   56      70/  2/  4 1011.9R
N MID LAKE BUOY  1150   47 44  200/ 12/ 14 1012.3R         2/ 4
SISTER BAY LKSHO 1149   62        CALM       N/A
CHAMBERS ISLAND  1100   61     180/  5/  9 1012.2R
MENOMINEE LKSHOR 1100   63     220/  5/  6 1010.9R
$$




USA.gov is the U.S. government's official web portal to all federal, state and local government web resources and services.